STARLINK-11493 [DTC] (62410 NORAD) Tracking and Keplerian Element Data

This shows tracking and keplerian element data for the satellite.

Feedback or suggestion? Click here.




ElementValue
Catalog62410
NameSTARLINK-11493 [DTC]
Epoch Orbit683
Epoch Day35.10176874
Epoch Year2025
RAAN51.0652
Inclination42.9992
Eccentricity0.0003129
Argument of Perigee291.6078
Mean Anonmoly68.4459
Mean Motion15.77849744
Decay Rate4.215E-05
L11 62410U 24249B 25035.10176874 .00004215 00000+0 27086-4 0 9991
L22 62410 42.9992 51.0652 0003129 291.6078 68.4459 15.77849744 6836



Live tracking and technical data element details for STARLINK-11493 [DTC] (NORAD 62410). STARLINK-11493 [DTC] can be tracked NOW for your location showing map with azimuth and elevation plus other details from your city location.







IsCatalogInMostPopularTable: catalog: 62410, numindb: 17
Update: records affected: 1



GetName: 62410 STARLINK-11493 [DTC]

Hit Count: updated at: Mon, 19 May 2025 02:37:20 GMT